Location: Glendale
(37.4556°N, 88.6714°W)
Time: 10:28:08
(UTC+00:00)

ALOS - Pass Details

Date: 08 December 2019
Orbit: 684 x 685 km, 97.8° (Epoch: 23 January)

Event Time Altitude Azimuth Distance (km) Brightness Sun altitude
Rises 11:37:07 0° 6° (N) 3,058 5.5 -15.3°
Reaches altitude 10° 11:39:24 10° 2° (N) 2,138 4.7 -14.9°
Maximum altitude 11:43:56 52° 286° (WNW) 850 2.4 -14.1°
Drops below altitude 10° 11:48:27 10° 211° (SSW) 2,123 4.7 -13.2°
Sets 11:50:43 0° 206° (SSW) 3,034 5.5 -12.8°
